Flag for Germany Weather past 2 weeks in Göttingen, Lower Saxony, Germany

Now
43 °F

Mostly cloudy.


Feels Like: 35 °F
Forecast: 40 / 43 °F
Wind: 15 mph from West

Location: Kassel / Calden

Current Time: Dec 19, 2014 at 11:55:28 PM

Latest Report: Dec 19, 2014 at 9:50 PM


Visibility: N/A

Pressure: 29.98 "Hg

Humidity: 76%

Dew point: 36 °F

Location of GöttingenLocation

Historic Weather in Göttingen — Graph

°F

Göttingen temperature yesterday

Maximum temperature yesterday: 55 °F (at 8:50 PM)
Minimum temperature yesterday: 46 °F (at 6:20 AM)
Average temperature yesterday: 51 °F

Past Weeks' High & Low Weather Summary

 TemperatureHumidityPressure
High55 °F (Dec 18, 8:50 PM)100% (Dec 4, 9:20 PM)30.36 "Hg (Dec 4, 9:20 PM)
Low32 °F (Dec 4, 9:20 PM)65% (Dec 14, 7:50 AM)29.42 "Hg (Dec 12, 1:50 PM)
Average39 °F86%29.92 "Hg
* Reported Dec 4 9:20 PM — Dec 19 9:50 PM, Göttingen, Weather by CustomWeather, © 2014

Note: Actual official high and low records may vary slightly from our data, if they occured in-between our weather recording intervals... More about our weather records

Advertising

Göttingen weather history for previous 24 hours

 ConditionsComfort  
Time TempWeatherWind HumidityBarometerVisibility
9:50 PM
Dec 19
43 °FMostly cloudy.15 mph76%29.98 "HgN/A
9:20 PM43 °FMostly cloudy.16 mph76%29.98 "HgN/A
8:50 PM43 °FMostly cloudy.18 mph76%29.98 "HgN/A
8:20 PM43 °FMostly cloudy.16 mph76%29.95 "HgN/A
7:50 PM43 °FMostly cloudy.14 mph81%29.95 "HgN/A
7:20 PM43 °FPassing clouds.8 mph81%29.92 "HgN/A
6:50 PM43 °FPassing clouds.15 mph81%29.92 "HgN/A
6:20 PM43 °FMostly cloudy.13 mph81%29.89 "HgN/A
5:50 PM45 °FMostly cloudy.16 mph81%29.89 "HgN/A
5:20 PM45 °FMostly cloudy.14 mph87%29.86 "HgN/A
4:50 PM46 °FMostly cloudy.13 mph82%29.83 "HgN/A
4:20 PM46 °FLight rain. Mostly cloudy.14 mph87%29.83 "HgN/A
3:50 PM48 °FLight rain. Mostly cloudy.20 mph87%29.83 "Hg6 mi
3:20 PM48 °FRain. Mostly cloudy.17 mph94%29.80 "Hg4 mi
2:50 PM50 °FRain. Broken clouds.15 mph88%29.77 "Hg5 mi
2:20 PM50 °FLight rain. More clouds than sun.20 mph88%29.74 "HgN/A
1:50 PM52 °FLight rain. Broken clouds.21 mph82%29.74 "HgN/A
1:20 PM52 °FLight rain. More clouds than sun.21 mph82%29.74 "HgN/A
12:50 PM52 °FLight rain. Broken clouds.21 mph82%29.77 "HgN/A
12:20 PM50 °FLight rain. More clouds than sun.21 mph88%29.77 "HgN/A
11:50 AM50 °FLight rain. Broken clouds.20 mph88%29.77 "HgN/A
11:20 AM50 °FLight rain. Cloudy.17 mph88%29.80 "HgN/A
10:50 AM50 °FLight rain. Cloudy.18 mph88%29.80 "HgN/A
10:20 AM50 °FLight rain. More clouds than sun.20 mph88%29.80 "HgN/A
9:50 AM50 °FLight rain. Mostly cloudy.18 mph88%29.80 "HgN/A
9:20 AM50 °FLight rain. Cloudy.20 mph88%29.77 "HgN/A
8:50 AM52 °FMostly cloudy.20 mph82%29.80 "HgN/A
8:20 AM52 °FPartly cloudy.20 mph82%29.80 "HgN/A
7:50 AM52 °FOvercast.22 mph82%29.80 "HgN/A
7:20 AM52 °FPartly cloudy.20 mph82%29.80 "HgN/A
6:50 AM52 °FMostly cloudy.21 mph82%29.80 "HgN/A
6:20 AM52 °FMostly cloudy.18 mph82%29.80 "HgN/A
5:50 AM52 °FPassing clouds.14 mph82%29.83 "HgN/A
Weather by CustomWeather, © 2014

See weather overviewHow to use our weather pages